Wind_Speed
34 33 32 32 31 30 30 31 30 29 28 28 28 28 27 27 26 26 25 24 23 23 23 23 23 22 22 22 22 22 22 22 21 21 21 21 22 22 22 22 22 22 22
36 35 34 33 32 31 31 31 31 31 30 29 29 29 28 28 28 27 27 26 25 25 25 25 24 24 25 25 24 24 24 24 24 23 24 24 24 24 24 24 24 24 24
38 37 36 36 35 33 33 32 32 32 32 32 30 30 29 29 29 29 28 28 28 28 27 27 27 27 27 27 26 26 26 26 25 25 25 25 25 26 26 26 26 26 25
39 39 38 37 36 35 35 35 34 33 32 32 33 32 31 31 31 31 30 30 30 30 30 30 29 29 29 29 29 28 28 28 28 27 27 27 27 28 28 28 28 27 27
40 40 39 39 38 38 37 37 36 35 35 34 33 33 33 33 33 33 32 32 32 32 32 32 32 31 31 31 30 30 30 30 30 29 29 29 29 29 30 29 29 30 29
43 42 41 40 40 40 39 39 39 38 37 36 35 35 35 34 34 34 34 34 34 34 34 34 34 33 32 32 32 32 32 32 32 32 32 31 31 32 32 32 31 31 31
45 44 43 42 42 42 42 41 40 39 39 38 38 37 37 37 37 36 36 36 36 35 35 35 36 36 36 35 35 35 35 35 35 34 34 34 34 34 34 34 33 33 33
45 45 44 43 43 43 42 42 42 41 41 40 40 39 39 39 39 38 38 38 37 37 37 37 37 37 38 38 38 38 37 37 37 37 36 36 36 36 36 35 35 35 34
46 46 45 44 44 44 43 43 43 42 42 42 42 41 41 40 40 40 40 40 39 39 39 39 39 39 39 39 39 39 40 39 39 39 39 38 38 37 37 36 36 36 36
46 46 46 45 45 44 43 43 43 43 43 43 43 43 43 42 42 42 41 41 40 40 40 40 40 41 41 41 41 41 41 41 41 40 40 40 39 38 38 38 38 38 38
47 47 46 46 45 45 45 45 45 44 44 43 42 43 44 44 43 43 42 41 41 42 42 41 41 42 42 43 43 43 43 43 42 42 41 40 40 40 40 40 40 40 41
47 47 47 46 46 46 47 47 47 46 45 45 45 44 44 45 44 44 43 42 42 42 42 43 43 43 43 44 44 44 43 43 42 42 42 42 42 42 42 43 42 42 42
47 47 47 47 47 47 47 47 47 47 47 47 47 47 46 46 46 46 46 44 44 44 44 44 44 44 44 44 44 44 44 44 43 43 43 43 43 43 44 44 44 44 44
47 47 48 47 47 47 47 47 48 48 48 49 49 48 48 47 47 47 47 47 46 45 45 44 45 45 44 45 45 45 45 45 45 45 45 45 45 45 45 45 46 45 45
47 48 49 49 48 48 48 48 48 48 49 49 49 48 49 49 48 48 48 47 47 46 45 45 45 45 45 46 46 46 46 47 47 47 46 47 47 47 47 47 47 47 47
47 48 49 50 49 50 50 49 49 49 49 49 49 49 48 48 48 48 48 49 49 49 48 46 46 46 46 47 47 47 47 48 48 48 48 48 49 49 49 48 48 49 49
48 48 48 49 50 51 50 50 49 49 50 50 51 50 50 49 49 49 49 49 49 49 49 48 47 48 48 48 48 48 49 49 49 50 50 50 50 50 50 50 49 49 50
48 48 48 49 51 51 51 50 50 50 51 50 51 51 51 51 51 51 50 50 50 50 49 49 49 49 49 50 50 50 50 51 51 51 51 51 51 50 51 51 50 50 50
49 49 50 50 50 50 51 51 51 51 51 51 51 51 51 52 52 52 52 52 52 52 51 51 51 50 51 51 51 51 51 51 51 52 52 51 51 52 52 52 52 51 51
49 49 49 50 50 51 52 52 52 52 51 51 51 52 52 52 52 53 53 54 54 53 53 53 52 52 52 52 52 52 53 52 52 53 53 53 53 54 53 53 52 52 52
49 49 49 50 49 50 51 52 52 52 52 52 52 52 53 53 54 54 54 55 55 55 55 55 54 53 52 52 52 53 53 54 54 54 55 54 54 54 54 54 53 53 52
48 49 50 50 50 50 51 51 52 52 52 52 52 53 53 54 55 55 55 56 56 55 55 55 55 54 53 53 53 54 54 55 55 55 55 55 54 54 54 54 54 54 54
47 48 49 49 50 51 51 52 52 52 53 53 52 53 53 53 54 55 55 56 56 56 56 55 55 55 54 54 55 55 55 55 55 55 56 55 54 53 53 53 54 55 55
46 46 47 49 50 51 51 52 52 53 53 53 53 53 53 53 53 54 55 55 55 55 55 55 55 55 56 56 55 56 56 56 55 55 55 55 55 55 55 54 54 54 54
45 46 47 48 49 50 51 51 53 53 53 53 52 53 53 52 52 53 55 55 56 56 56 56 56 56 56 56 56 56 56 55 55 54 55 55 55 55 55 54 54 54 54
45 46 46 47 48 49 50 52 53 53 53 53 53 52 52 52 52 53 54 54 55 55 56 56 56 56 56 55 55 55 55 56 56 55 54 55 54 54 54 53 53 53 53
Wind_Direction
245 246 246 245 248 248 247 246 245 245 245 247 249 249 250 251 254 254 255 255 255 256 256 257 259 260 260 261 262 262 263 265 267 270 272 272 273 274 275 275 274 274 276
245 246 245 246 248 248 247 247 247 247 247 247 248 249 249 251 252 254 255 255 256 256 257 258 260 261 263 263 262 262 264 265 266 269 271 272 272 273 275 275 274 274 275
246 246 246 247 248 249 249 249 250 249 247 248 249 251 251 251 252 253 255 257 257 258 258 259 261 262 262 262 262 263 263 265 266 268 270 271 272 273 275 275 274 274 275
246 245 246 247 248 249 249 249 250 249 248 249 250 251 252 253 254 254 256 258 259 260 260 260 262 263 263 263 264 264 264 265 266 267 269 270 272 273 274 275 274 274 275
247 246 246 247 247 247 248 248 248 250 250 250 252 251 252 253 255 255 257 258 259 260 261 262 262 263 264 264 265 266 266 265 266 267 269 271 272 273 274 274 274 274 275
247 247 247 248 248 248 248 249 249 250 251 252 253 253 252 253 255 256 257 258 259 260 260 261 262 264 265 265 265 267 267 266 267 267 269 270 272 272 274 273 273 274 274
247 247 247 248 248 248 248 249 250 251 251 253 254 254 254 255 257 257 258 259 260 261 262 262 263 264 265 266 266 267 267 268 269 269 269 270 271 272 272 272 273 274 274
247 247 248 248 249 248 249 250 251 252 253 253 254 255 256 256 257 258 259 259 259 260 262 263 264 265 265 266 267 268 268 268 269 269 269 270 270 270 271 272 273 274 275
248 247 248 248 249 249 250 251 253 253 254 254 255 256 257 257 258 258 258 259 259 260 261 262 263 264 265 266 267 268 268 268 268 269 269 269 269 270 271 272 273 274 275
247 248 248 248 249 249 250 250 252 252 254 255 255 256 257 257 258 258 258 259 260 260 261 263 264 264 265 266 267 268 268 268 268 268 269 268 269 270 270 272 273 275 275
248 248 249 249 248 249 250 251 251 253 254 254 256 256 256 257 257 257 257 258 258 260 261 262 264 264 264 266 267 267 268 267 268 268 269 269 269 270 271 272 274 275 276
247 247 248 249 249 250 251 252 253 254 254 255 255 256 256 256 256 256 257 257 258 259 261 262 263 263 264 265 266 268 268 268 267 267 268 269 270 271 272 273 273 275 276
249 248 248 250 251 251 252 253 253 254 255 255 255 255 255 255 255 256 257 259 259 259 260 261 263 264 265 266 268 268 268 267 267 267 268 269 270 271 272 272 273 274 275
250 249 249 250 251 252 252 253 254 255 256 256 255 254 254 254 255 256 257 259 259 259 259 261 264 265 266 267 268 268 268 267 267 268 268 269 269 270 271 272 273 273 274
251 250 250 250 251 252 252 252 253 255 255 255 254 254 255 256 257 257 257 258 259 260 261 262 264 264 266 267 268 268 268 268 268 269 269 269 269 269 271 273 273 273 274
251 251 250 251 252 252 252 253 254 254 254 254 254 254 256 257 258 258 258 258 260 262 262 263 264 265 266 267 268 268 269 268 268 269 270 270 270 270 271 272 273 274 274
251 251 251 251 251 252 252 253 253 254 254 254 254 255 256 257 258 259 260 260 261 262 263 264 264 264 265 266 266 268 268 269 269 270 270 271 271 271 271 272 273 273 274
252 252 252 252 252 252 252 252 253 253 253 254 254 255 256 257 258 259 260 261 261 263 264 264 265 266 266 265 266 267 269 269 269 269 270 271 272 272 271 271 272 272 272
253 252 252 252 251 251 251 252 253 253 254 254 255 256 256 257 258 259 260 262 262 263 264 265 265 265 265 265 266 267 268 269 269 270 270 271 272 272 272 272 272 272 272
253 251 251 251 252 252 252 252 253 254 255 256 257 258 257 258 258 259 261 262 263 263 264 265 265 266 266 266 266 267 267 268 270 270 271 272 271 272 272 272 272 271 272
252 252 252 252 253 253 252 252 253 254 256 258 259 259 259 259 260 260 261 262 263 263 265 265 265 266 267 266 266 267 268 268 270 271 272 271 271 272 272 273 272 272 272
253 253 253 253 253 253 253 253 254 255 257 258 259 260 260 261 261 262 263 263 263 264 265 266 266 267 267 266 267 268 269 269 270 270 270 270 271 272 272 272 272 272 272
254 254 254 253 253 253 253 254 255 256 258 258 259 261 261 261 262 262 262 262 263 264 265 266 266 267 267 267 268 269 269 269 270 270 270 271 271 272 273 272 273 273 273
257 257 256 256 255 255 255 255 256 257 258 259 260 261 261 261 263 262 261 262 263 264 265 266 267 267 267 268 269 269 269 270 270 270 270 271 271 272 272 273 273 273 273
258 259 259 259 258 257 256 256 256 257 257 258 259 260 261 261 262 263 262 262 262 263 264 265 266 267 268 268 268 268 269 269 269 270 270 271 271 272 272 273 272 273 273
260 261 261 261 260 259 258 258 257 257 258 259 260 261 262 262 263 263 263 264 263 264 265 265 266 267 268 268 268 268 269 269 270 270 271 271 271 272 272 271 272 272 273
Height
5786 5789 5791 5794 5796 5798 5800 5802 5804 5806 5808 5810 5812 5814 5816 5817 5819 5820 5822 5823 5824 5825 5826 5827 5828 5828 5829 5830 5830 5831 5831 5832 5832 5833 5833 5833 5833 5833 5833 5833 5833 5833 5832
5779 5782 5784 5787 5789 5791 5794 5796 5798 5800 5802 5804 5806 5808 5810 5811 5813 5815 5816 5817 5819 5820 5821 5822 5823 5823 5824 5825 5825 5826 5826 5827 5827 5828 5828 5828 5828 5828 5828 5828 5828 5828 5828
5771 5774 5777 5779 5782 5784 5787 5789 5791 5794 5796 5798 5800 5802 5803 5805 5807 5808 5810 5811 5813 5814 5815 5816 5817 5818 5818 5819 5819 5820 5820 5821 5822 5822 5823 5822 5822 5822 5822 5822 5822 5822 5822
5762 5765 5768 5771 5774 5776 5779 5782 5784 5787 5789 5791 5793 5795 5797 5798 5800 5802 5803 5805 5806 5807 5809 5810 5810 5811 5812 5812 5813 5814 5815 5815 5816 5816 5817 5817 5817 5817 5816 5816 5816 5816 5816
5753 5757 5760 5763 5765 5768 5771 5774 5777 5779 5781 5784 5786 5788 5790 5791 5793 5794 5796 5798 5799 5800 5801 5802 5803 5804 5805 5806 5807 5807 5808 5809 5809 5809 5810 5810 5810 5810 5810 5810 5810 5810 5810
5744 5747 5750 5753 5756 5759 5762 5765 5768 5771 5773 5776 5778 5780 5782 5784 5785 5787 5788 5790 5792 5793 5794 5795 5796 5797 5798 5799 5799 5800 5801 5801 5802 5802 5803 5803 5803 5803 5803 5803 5803 5803 5802
5734 5737 5741 5744 5747 5750 5753 5756 5759 5762 5765 5767 5769 5771 5773 5775 5777 5778 5780 5782 5783 5785 5786 5787 5788 5789 5790 5791 5791 5792 5793 5793 5794 5794 5795 5795 5795 5795 5795 5795 5795 5795 5795
5724 5727 5731 5734 5737 5740 5744 5747 5749 5752 5755 5757 5760 5762 5764 5767 5768 5769 5771 5773 5774 5776 5777 5778 5779 5780 5781 5782 5783 5783 5784 5784 5785 5786 5786 5787 5787 5787 5787 5787 5787 5787 5787
5713 5717 5721 5724 5727 5730 5734 5737 5739 5742 5745 5747 5749 5752 5754 5756 5758 5760 5761 5763 5765 5766 5767 5769 5770 5771 5772 5773 5773 5774 5774 5775 5776 5776 5777 5778 5778 5778 5778 5778 5778 5778 5778
5702 5706 5710 5714 5717 5720 5723 5726 5729 5732 5734 5737 5739 5741 5744 5745 5748 5750 5752 5753 5755 5756 5758 5759 5760 5761 5761 5762 5763 5764 5764 5765 5766 5767 5767 5768 5768 5769 5769 5769 5769 5769 5769
5691 5695 5699 5702 5706 5709 5712 5715 5718 5721 5723 5726 5728 5730 5732 5734 5736 5738 5741 5743 5745 5746 5747 5748 5749 5750 5751 5751 5752 5753 5754 5755 5756 5756 5757 5757 5758 5759 5759 5759 5759 5759 5759
5679 5684 5687 5691 5695 5698 5701 5704 5707 5709 5712 5714 5717 5719 5721 5723 5725 5727 5729 5732 5734 5735 5736 5737 5738 5739 5740 5741 5741 5742 5743 5744 5745 5745 5746 5747 5747 5748 5748 5748 5749 5748 5748
5669 5672 5676 5680 5683 5686 5689 5692 5695 5697 5700 5702 5705 5707 5709 5712 5714 5716 5718 5720 5722 5724 5725 5726 5727 5728 5729 5730 5730 5731 5731 5732 5733 5734 5735 5735 5736 5737 5737 5737 5738 5738 5737
5657 5661 5664 5668 5671 5674 5677 5680 5683 5685 5688 5691 5693 5695 5698 5700 5702 5704 5706 5708 5710 5713 5714 5716 5716 5717 5718 5718 5719 5719 5720 5721 5721 5722 5723 5724 5724 5725 5726 5726 5726 5726 5725
5646 5649 5652 5656 5659 5662 5664 5667 5670 5673 5676 5678 5681 5683 5686 5688 5690 5692 5694 5696 5698 5700 5703 5704 5705 5706 5706 5707 5707 5707 5708 5709 5709 5710 5711 5712 5712 5713 5713 5713 5713 5713 5713
5634 5636 5640 5643 5646 5649 5652 5655 5658 5660 5663 5666 5669 5671 5673 5675 5677 5679 5681 5683 5684 5687 5689 5692 5693 5693 5693 5694 5695 5695 5695 5696 5697 5698 5698 5699 5699 5700 5700 5700 5701 5700 5700
5621 5624 5627 5630 5633 5636 5639 5642 5645 5648 5651 5653 5656 5658 5661 5663 5665 5666 5668 5670 5671 5673 5675 5678 5679 5680 5680 5681 5682 5682 5682 5683 5684 5684 5685 5685 5685 5686 5686 5687 5687 5687 5687
5609 5612 5614 5617 5620 5623 5626 5629 5632 5635 5637 5640 5643 5645 5647 5649 5652 5653 5655 5656 5658 5659 5661 5664 5665 5666 5667 5667 5668 5669 5669 5669 5670 5670 5671 5671 5672 5672 5672 5672 5673 5673 5672
5596 5598 5601 5604 5607 5609 5612 5615 5618 5621 5624 5626 5629 5631 5633 5635 5638 5639 5641 5643 5644 5645 5647 5649 5650 5651 5652 5653 5654 5654 5655 5655 5656 5656 5656 5657 5657 5658 5658 5658 5658 5658 5658
5582 5585 5587 5590 5593 5596 5599 5602 5604 5607 5610 5612 5614 5617 5619 5621 5623 5625 5626 5628 5629 5631 5632 5634 5635 5636 5637 5638 5639 5640 5640 5641 5641 5642 5642 5642 5643 5643 5643 5643 5644 5644 5643
5569 5571 5574 5577 5579 5582 5585 5587 5590 5593 5595 5598 5600 5602 5604 5606 5608 5610 5611 5613 5614 5615 5617 5618 5620 5621 5622 5623 5624 5625 5625 5625 5626 5627 5627 5628 5628 5628 5628 5628 5628 5628 5628
5555 5558 5561 5563 5566 5568 5571 5573 5576 5578 5581 5583 5585 5587 5589 5591 5593 5594 5595 5597 5598 5600 5601 5602 5604 5606 5608 5608 5609 5609 5610 5611 5612 5613 5612 5613 5613 5613 5613 5613 5612 5612 5612
5542 5544 5547 5549 5552 5554 5556 5558 5561 5563 5565 5568 5570 5572 5574 5575 5577 5578 5580 5581 5582 5584 5585 5587 5588 5590 5592 5593 5594 5594 5594 5595 5596 5596 5596 5597 5597 5597 5597 5597 5597 5597 5596
5529 5531 5533 5535 5538 5540 5541 5543 5545 5548 5550 5553 5555 5557 5559 5560 5561 5562 5564 5565 5567 5569 5570 5571 5573 5574 5575 5576 5577 5578 5578 5579 5580 5580 5580 5581 5582 5582 5582 5581 5581 5581 5580
5517 5518 5520 5522 5523 5525 5527 5528 5530 5533 5535 5538 5540 5542 5543 5545 5546 5547 5548 5550 5552 5553 5553 5555 5556 5557 5558 5560 5561 5561 5562 5563 5564 5565 5564 5565 5566 5566 5566 5566 5565 5565 5565
5504 5505 5507 5508 5509 5511 5512 5514 5515 5518 5521 5523 5525 5527 5529 5530 5530 5531 5532 5534 5536 5537 5538 5539 5541 5542 5542 5543 5544 5545 5545 5546 5547 5549 5549 5548 5549 5548 5550 5550 5549 5549 5549